Regional Weather Roundup
Issued by NWS Pendleton, OR

Home | Current Version | Previous Version | Text Only | Print | Product List | Glossary On
Versions: 1 2 3 4 5 6 7 8 9 10 11 12 13 14 15 16 17 18 19 20 21 22 23 24 25 26 27 28 29 30 31 32 33 34 35 36 37 38 39 40 41 42 43 44 45 46 47 48 49 50
000
ASUS46 KPDT 311025
RWRPDT
PENDLETON REGIONAL WEATHER ROUNDUP
NATIONAL WEATHER SERVICE PENDLETON OREGON
300 AM PDT SUN AUG 31 2014

NOTE: FAIR INDICATES FEW OR NO CLOUDS BELOW 12,000 FEET WITH NO
SIGNIFICANT WEATHER AND/OR OBSTRUCTIONS TO VISIBILITY.

# INDICATES UNOFFICIAL STATION AND DATA

WAZ520-311110-
EAST SLOPES OF WASHINGTON CASCADES

CITY            SKY/WX      TMP DP  RH  WIND    PRES   REMARKS
#CLE ELUM HS    N/A         53  46  77  NW1     29.93R
#CLE ELUM 2NW   N/A         53  45  74  SW1     N/A
#CLE ELUM LAKE  N/A         50  46  86  N1      29.91R
#CLIFFDEL 2NW   N/A         46  43  89  N1      N/A
#GLENWOOD       N/A         47  42  83  CALM    29.94R
#MANASTASH CYN  N/A         43  39  86  CALM    29.95R
#NELSON         N/A         54  48  80  CALM    29.94R
#NELSON 3SW     N/A         46  43  89  CALM    30.12R
#NILE           N/A         47  42  83  CALM    29.22R
#RONALD 2NW     N/A         52  47  83  SW2     29.85R
#TEANAWAY 4NE   N/A         54  49  83  CALM    N/A
#TROUT LAKE 1NE N/A         50  44  80  W3      29.96R
$$

WAZ521-311110-
SIMCOE HIGHLANDS

CITY            SKY/WX      TMP DP  RH  WIND    PRES   REMARKS
#BICKLETON HS   N/A         50  31  48  W2      30.00S
#CENTERVILLE 1SWN/A         52  46  80  W12     29.92S
#GOLDENDALE     N/A         52  45  77  SW7     N/A
#GOLDENDALE 1NE N/A         53  42  66  S2      N/A
#GOLDENDALE 1S  N/A         50  46  86  CALM    29.96R
#GOLDENDALE 5WNWN/A         54  46  74  W9      29.93R
#GOODNOE HILLS  N/A         57  50  77  W15     29.91R
#LYLE 6NE       N/A         55  49  80  W7      29.93R
$$

WAZ026-311110-
KITTITAS VALLEY

CITY            SKY/WX      TMP DP  RH  WIND    PRES   REMARKS
ELLENSBURG AP   FAIR        55  45  69  N13     29.94S
#ELLENSBURG CWU N/A         55  46  72  NW15    29.86S
#ELLENSBURG 3NE N/A         53  46  77  NW3     29.95R
#ELLENSBURG     N/A         58  50  75  W7      N/A
#ELLENSBURG 1E  N/A         54  43  66  CALM    N/A
#KITTITAS 3S    N/A         50  45  83  CALM    29.89R
#THORP 6N       N/A         52  45  77  N14G24  29.92R
$$

WAZ027-311110-
YAKIMA VALLEY

CITY            SKY/WX      TMP DP  RH  WIND    PRES   REMARKS
SUNNYSIDE AP    FAIR        48  46  93  N3      29.92R
YAKIMA AIRPORT  FAIR        57  42  57  NW6     29.93R
YAKIMA-VAGABOND FAIR        55  44  66  NE3     29.95R
#COWICHE 1N     N/A         56  41  57  NW6     30.10R
#DONALD 2NE     N/A         59  40  49  S2      30.25R
#GRANDVIEW      N/A         58  41  53  W2      29.91R
#MABTON         N/A         57  45  64  SW1     29.93R
#MOXEE 2E       N/A         58  36  44  NW10    29.90R
#NACHES 2SW     N/A         56  45  66  W7      29.93R
#OUTLOOK DOT    N/A         N/A N/A N/A W5      N/A
#SELAH 8E       N/A         51  42  71  W3      N/A
#TERRACE HTS    N/A         56  44  64  N5      29.86R
#TOPPENISH      N/A         59  43  55  CALM    29.83R
#WAPATO 4NE     N/A         59  40  49  S2      30.25R
#WEST VALLEY    N/A         57  41  55  CALM    29.88R
#W YAKIMA       N/A         58  42  55  NW3     29.90R
#WHITE SWAN 5E  N/A         58  42  55  W7      29.90R
#WILEY CITY 3W  N/A         51  36  56  CALM    29.93R
$$

WAZ028-311110-
LOWER COLUMBIA BASIN...WASHINGTON

CITY            SKY/WX      TMP DP  RH  WIND    PRES   REMARKS
PASCO           FAIR        59  50  72  SW7     29.92R
PROSSER AWOS    N/A         50  46  86  N3      29.96R
RICHLAND AWOS   FAIR        61  46  58  CALM    29.92R
#BASIN CITY 5SW N/A         59  50  72  SW6     29.91R
#BENTON CITY    N/A         56  47  72  CALM    29.82R
#CONNELL 5N     N/A         52  48  86  SW2     29.86R
#CONNELL 5NW    N/A         53  48  83  SW5     29.85R
#ELTOPIA        N/A         55  50  83  S3      29.87R
#ELTOPIA 6NW    N/A         57  49  75  SW5     28.88R
#KENNEWICK 3S   N/A         56  49  77  S7      29.90R
#PATERSON       N/A         58  50  75  W6      29.91R
#PROSSER        N/A         59  41  51  SW5     29.90R
#SAGEMOOR 2W    N/A         54  49  83  CALM    29.75R
#TOUCHET 2S     N/A         60  47  62  W13     29.90S
#WEST PASCO     N/A         59  48  67  S1      29.91R
$$

WAZ029-311110-
FOOTHILLS OF THE BLUES...WASHINGTON

CITY            SKY/WX      TMP DP  RH  WIND    PRES   REMARKS
WALLA WALLA AP  CLOUDY      61  47  60  S17     29.98R
#COLLEGE PLACE  N/A         63  44  50  S5      29.97R
#DAYTON SCHOOL  N/A         59  41  51  SW7     29.95R
#LOWDEN 2SE     N/A         62  47  58  W16G26  29.91R
#PLEASANT VIEW 1N/A         55  48  77  S12     29.93R
#PRESCOTT       N/A         59  49  69  SW1     29.91R
#SUDBURY        N/A         61  N/A N/A CALM    N/A
#WHITMAN COLLEGEN/A         61  47  60  SE3     29.99R
#WAITSBURG 8N   N/A         55  38  53  S10     29.88R
#WALLA WALLA 5E N/A         77  50  39  W7      N/A
#WALLA WALLA U  N/A         62  48  60  CALM    29.93R
#WHITMAN MISSIONN/A         62  48  60  S2      29.95R
$$

WAZ030-311110-
BLUE MOUNTAINS...WASHINGTON

CITY            SKY/WX      TMP DP  RH  WIND    PRES   REMARKS
$$

ORZ009-041-WAZ024-311110-
COLUMBIA RIVER GORGE

CITY            SKY/WX      TMP DP  RH  WIND    PRES   REMARKS
HOOD RIVER AP   MOCLDY      57  50  77  SW3     30.01R
THE DALLES AP   MOCLDY      61  46  58  W12     29.98R
#ARLINGTON AIRPON/A         58  48  69  W14     N/A
#ARLINGTON HS   N/A         61  48  62  NW6     29.85R
#MARYHILL 2W    N/A         59  51  75  SE2     N/A
#MOSIER 1S      N/A         58  42  55  W8      30.03R
#MURDOCK        N/A         63  53  70  W2      30.00R
#RUFUS DOT      N/A         62  50  65  N5      N/A

$$

ORZ510-311110-
NORTH CENTRAL OREGON

CITY            SKY/WX      TMP DP  RH  WIND    PRES   REMARKS
#CHENOWITH 1W   N/A         53  45  74  W16     N/A
#COW CYN RST AREN/A         51  43  74  SW2     N/A
#DUFUR 9E       N/A         53  45  74  W10G25  30.01R
#GRASS VALLEY   N/A         50  44  80  CALM    N/A
#GRASS VALLEY 1SN/A         50  43  77  CALM    30.00S
#KENT DOT       N/A         49  40  71  SW1     N/A
#MAUPIN SCHOOL  N/A         58  49  72  W5      28.88R
#MORO SCHOOL    N/A         55  49  80  W12     30.01R
#SHANIKO 5WSW   N/A         49  38  66  W9      N/A
#SHANIKO 4NW    N/A         48  42  80  W9      30.03R
#TYGH VALLEY 2NEN/A         54  47  77  CALM    29.96R
#WAPANITIA AIRPON/A         54  46  74  NW6     29.97R
#WASCO DOT      N/A         54  45  71  SW3     N/A
#WASCO 5NE      N/A         53  46  77  SW6     29.94R
$$

ORZ511-311110-
CENTRAL OREGON

CITY            SKY/WX      TMP DP  RH  WIND    PRES   REMARKS
BEND AIRPORT    PTCLDY      45  41  86  SW9     30.07R
MADRAS AIRPORT  CLOUDY      55  46  72  NE3     30.05S
REDMOND AIRPORT CLOUDY      50  44  80  S5      30.04S
#BEND 6E        N/A         46  40  79  CALM    29.93R
#BEND 1SW       N/A         46  42  86  SW1     N/A
#BEND-AWBREY    N/A         46  41  83  NW1     29.97R
#BEND-KIM LN    N/A         44  41  89  CALM    30.03R
#CROOKED RVR RANN/A         52  45  77  W12     29.95R
#CULVER         N/A         52  45  77  CALM    30.01R
#LAKE BILLY CHINN/A         54  34  47  SE3     30.08R
#POWELL BUTTE 3EN/A         52  46  80  W3      N/A
#POWELL BUTTE   N/A         53  44  71  W2      29.69S
#PRINEVILLE 3N  N/A         49  46  89  CALM    29.93R
#WARM SPRINGS   N/A         59  48  67  SE1     30.00R


ORZ509-311110-
EAST SLOPES OF OREGON CASCADES

CITY            SKY/WX      TMP DP  RH  WIND    PRES   REMARKS
#BLUE BOX PASS  N/A         45  -6  11  CALM    N/A
#BLACK BUTTE RNCN/A         52  46  80  CALM    29.96S
#CAMP SHERMAN   N/A         50  44  80  CALM    29.98S
#LA PINE DOT    N/A         43  41  93  SE1     N/A
#LA PINE 4NW    N/A         46  41  83  CALM    30.02R
#LAVA BUTTE DOT N/A         43  42  96  CALM    N/A
#SISTERS AIRPOR N/A         52  49  89  N1      30.03R
#SISTERS ODOT   N/A         50  N/A N/A CALM    N/A
#SISTERS 1NW    N/A         53  44  71  N8      N/A
#SISTERS 3N     N/A         52  43  71  CALM    N/A
#SUNRIVER       N/A         43  41  93  CALM    29.86R
#SUNRIVER AP    N/A         43  41  93  CALM    29.93S
#SUTTLE LK DOT  N/A         45  45  100 CALM    N/A
#TUMALO 3W      N/A         47  42  83  SW2     29.87R
#WANOGA BUTTE D N/A         41  36  82  W3      N/A

$$

ORZ044-311110-
LOWER COLUMBIA BASIN...OREGON

CITY            SKY/WX      TMP DP  RH  WIND    PRES   REMARKS
HERMISTON       FAIR        58  46  64  SW13    29.95R
#BOARDMAN SCHOOLN/A         60  49  67  W2      29.94R
#BOARDMAN 3W    N/A         58  49  72  SW8     29.65R
#BOARDMAN 8SW   N/A         58  49  72  SW8     29.93R
#ECHO 8SW       N/A         57  43  59  SW3     29.93R
#IONE SCHOOL    N/A         59  44  57  SW7     29.96F
#IRRIGON 4NW    N/A         60  50  69  S8      N/A
#UMATILLA SCHOOLN/A         58  52  80  S2      29.98S
#UMATILLA       N/A         61  46  58  SW9     29.91R
$$

ORZ507-311110-
NORTHERN FOOTHILLS OF THE BLUES

CITY            SKY/WX      TMP DP  RH  WIND    PRES   REMARKS
PENDLETON AIRPT PTCLDY      58  42  55  SW12    29.98R
#ADAMS 3WNW     N/A         53  45  74  S5      29.94S
#ATHENA         N/A         55  46  72  CALM    29.95S
#HELIX SCHOOL   N/A         53  45  74  S7      29.93S
#HELIX 3N       N/A         51  45  80  S10     29.95R
#HELIX 6SW      N/A         53  45  74  SW9     29.97
#HOLDMAN 5SE    N/A         55  46  72  W2      29.98R
#HOLDMAN 6E     N/A         53  45  74  N8      29.75R
#M-F GROVE ELEM N/A         61  44  53  SW1     29.96R
#M-FREEWATER 5SEN/A         60  46  60  CALM    29.98S
#PENDLETON DNTN N/A         59  40  49  SW5     29.92S
#PDT AQUATIC CTRN/A         60  42  51  SW5     29.98S
#PDT SUNRIDGE   N/A         57  45  64  SW5     29.99R
#PENDLETON 7NW  N/A         57  45  64  SW8     28.78F
#PILOT ROCK     N/A         57  43  59  S5      30.01R
#TUTUILLA       N/A         59  48  67  S6      29.89S
#UMAPINE 2E     N/A         62  47  58  SW6     29.94R
#WESTON SCHOOL  N/A         56  43  62  NW8     29.94F

$$

ORZ508-311110-
SOUTHERN FOOTHILLS OF THE BLUES

CITY            SKY/WX      TMP DP  RH  WIND    PRES   REMARKS
LEXINGTON       FAIR        57  45  64  S10     30.01S
#AJAX           N/A         54  38  55  W7      29.95R
#CONDON SCHOOL  N/A         51  43  74  W2      29.99R
#FOSSIL SCHOOL  N/A         52  47  83  CALM    30.00S
#HEPPNER 4NE    N/A         51  43  74  SW3     29.94S
#LEXINGTON 2SE  N/A         57  45  64  SW1     29.97S
#MIKKALO        N/A         56  42  59  W10     29.99R
#OLEX 4N        N/A         58  46  64  SW15    29.96R
#RUGGS 5NE      N/A         51  43  74  SW8     30.17S
#RUGGS 2SW      N/A         52  44  74  SW6     30.00R

$$

ORZ502-503-311110-
BLUE MOUNTAINS

CITY            SKY/WX      TMP DP  RH  WIND    PRES   REMARKS
MEACHAM         LGT RAIN    50  48  93  CALM    30.03R
#BATTLE MTN DOT N/A         46  45  96  CALM    N/A
#HEPPNER 15SE   N/A         46  43  89  W3      29.94F
#LADD CYN SMT   N/A         50  45  83  CALM    N/A
#LADD CREEK ODOTN/A         50  49  96  CALM    N/A
#LONG CREEK HS  N/A         52  50  93  CALM    N/A
#N POWDER DOT   N/A         44  44  100 W7      N/A
#PIKES PEAK     N/A         50  43  77  SW18G28 27.99S
#TOLLGATE       N/A         43  42  96  S7      29.96R
#TOLLGATE 9W    N/A         51  45  80  W5      N/A
#UKIAH          N/A         48  47  96  CALM    30.01R
#WESTON 4E      N/A         50  42  74  S9      29.87F
$$

ORZ505-311110-
JOHN DAY BASIN

CITY            SKY/WX      TMP DP  RH  WIND    PRES   REMARKS
JOHN DAY        MOCLDY      53  51  93  SW6     30.04R
#DAYVILLE SCHOOLN/A         56  50  80  CALM    29.99S
#MONUMENT HS    N/A         56  53  90  CALM    30.02S
#MT. VERNON 5SE N/A         50  48  93  CALM    30.00R
#WINLOCK        N/A         47  43  86  CALM    30.11S
$$

ORZ506-311110-
OCHOCO AND JOHN DAY HIGHLANDS

CITY            SKY/WX      TMP DP  RH  WIND    PRES   REMARKS
#BUCK CREEK DOT N/A         48  47  96  W2      N/A
#HORSE RIDGE DO N/A         36  32  85  SW1     N/A
#KEYES SMT DOT  N/A         48  44  86  NW3     N/A
#PAULINA SCHOOL N/A         44  39  82  CALM    30.03S
#PINE MTN OBS   N/A         41  38  89  CALM    N/A
#PRAIRIE CITY   N/A         46  46  100 CALM    30.08S
#SENECA 9NW     N/A         42  41  96  CALM    29.92R
$$

ORZ049-311110-
GRANDE RONDE VALLEY

CITY            SKY/WX      TMP DP  RH  WIND    PRES   REMARKS
LA GRANDE       MOCLDY      55  41  59  CALM    30.00R
#COVE           N/A         53  51  93  CALM    29.92S
#COVE SCHOOL    N/A         54  51  90  CALM    29.98S
#COVE 6NW       N/A         54  49  83  CALM    29.98R
#ELGIN 3N       N/A         53  46  77  CALM    29.73S
#ELGIN 1E       N/A         53  47  80  CALM    N/A
#ISLAND CITY 4N N/A         56  48  74  CALM    29.87R
#LADD CYN DOT   N/A         54  48  80  CALM    N/A
#LA GRANDE ELEM N/A         55  49  80  CALM    29.99R
#UNION 1S       N/A         54  51  90  CALM    29.84S
$$

ORZ050-311110-
WALLOWA COUNTY

CITY            SKY/WX      TMP DP  RH  WIND    PRES   REMARKS
JOSEPH AIRPORT  CLOUDY      45  41  86  CALM    30.03R
#ENTERPRISE AP  N/A         46  40  79  SE3     29.96R
#ENTERPRISE HS  N/A         46  43  89  CALM    30.03R
#IMNAHA SCHOOL  N/A         60  46  60  CALM    29.95R
#IMNAHA 10S     N/A         55  46  72  SW3     29.99R
#JOSEPH 3N      N/A         45  41  86  CALM    30.03R
#JOSEPH 3W      N/A         46  42  86  CALM    29.85S
#LOSTINE        N/A         50  45  83  CALM    29.73R
#MT HOWARD 8000 N/A         36  32  85  SW6     30.08F
#PROMISE 1S     N/A         49  42  77  CALM    30.02R
#SHEEP RDG 7000 N/A         39  35  85  CALM    29.92R
#WALLOWA SCHOOL N/A         54  44  69  CALM    30.83R



$$



USA.gov is the U.S. government's official web portal to all federal, state and local government web resources and services.